Location: Newenden
(51.0000°N, 0.6167°E)
Time: 11:48:20
(UTC+00:00)

Daily predictions for brighter satellites

Satellite Brightness Start Highest point End
(mag) Time Altitude Azimuth Time Altitude Azimuth Time Altitude Azimuth
SPOT 5 2.9 20:50:42 10° SSE 20:54:57 55° ENE 20:59:11 10° N
Cosmos 2084 Rocket 3.5 20:51:37 10° NW 20:55:28 64° NE 20:59:27 10° SE
RESURS DK-1 2.6 20:52:23 10° NW 20:56:30 70° WSW 21:00:37 10° SSE
Cosmos 1703 3.5 20:53:13 10° S 20:56:55 48° E 21:00:39 10° NNE
Cosmos 1452 Rocket 3.5 20:54:25 10° SSW 20:59:37 67° ESE 21:04:51 10° NNE
Cosmos 1833 Rocket 3.0 20:54:30 10° S 20:59:49 46° ESE 21:05:11 10° NE
Cosmos 724 4.4 20:54:14 10° SW 21:00:03 83° NW 21:05:54 10° NE
CZ-4B R/B 1.5 20:58:26 10° N 21:01:18 63° WNW 21:04:09 10° SSW
Terra 2.3 20:57:07 10° SE 21:01:41 47° ENE 21:06:16 10° N
FALCON 9 DEB 3.4 21:01:38 10° WNW 21:04:54 64° N 21:08:09 10° E
Cosmos 1110 Rocket 4.3 21:00:35 10° S 21:05:39 50° ESE 21:10:47 10° NNE
Helios 1A Rocket 3.1 21:01:41 10° SSE 21:05:43 64° ENE 21:09:48 10° N
Cosmos 2322 Rocket 4.3 21:02:58 10° NNW 21:06:57 19° NNE 21:10:56 10° ENE
ERS-1 Rocket 3.1 21:03:13 10° SSE 21:08:13 68° ENE 21:13:14 10° N
Resurs 01 Rocket 3.2 21:04:49 10° SSW 21:08:49 33° W 21:12:53 10° NNW
Cosmos 2228 3.0 21:06:17 10° N 21:10:32 76° E 21:14:45 10° SSE
Cosmos 2058 Rocket 4.4 21:07:31 10° N 21:11:19 27° ENE 21:15:06 10° SE
Cosmos 2184 Rocket 4.1 21:08:13 10° N 21:14:26 86° W 21:20:39 10° S
Lacrosse 5 4.0 21:13:32 10° W 21:16:40 16° WSW 21:19:48 10° SSW
IRAS Rocket 4.4 21:12:51 10° NNE 21:18:29 86° WNW 21:24:03 10° SSW
Cosmos 1408 4.2 21:16:15 10° SE 21:18:36 18° E 21:20:58 10° NE
Cosmos 968 Rocket 3.8 21:16:29 10° NNW 21:21:38 57° ENE 21:26:36 11° SE
Cosmos 1328 4.2 21:22:22 10° SSE 21:26:12 45° E 21:30:01 10° NNE
USA 276 1.9 21:23:54 10° W 21:26:55 75° S 21:29:57 10° E
H-2A R/B 4.1 21:26:20 10° N 21:30:15 32° WNW 21:34:13 10° SW
Cosmos 2360 4.5 21:24:33 10° NW 21:30:16 68° WSW 21:35:50 11° SSE
SJ 16-02 3.7 21:28:05 10° NNE 21:30:33 14° NE 21:33:00 10° E
Cosmos 1867 3.7 21:25:50 10° NW 21:31:20 75° NE 21:36:30 11° SE
Cosmos 1455 4.5 21:28:45 10° NW 21:31:44 22° W 21:34:42 10° SW
Cosmos 2082 Rocket 2.8 21:28:29 10° S 21:33:41 37° ESE 21:38:54 10° NE
USA 245 4.4 21:31:22 10° SSW 21:35:06 36° W 21:38:10 10° NNW
Cosmos 1536 Rocket 4.3 21:31:49 10° SSW 21:36:03 53° WNW 21:40:20 10° N
USA 267 4.2 21:31:44 10° ENE 21:36:54 24° SE 21:42:03 10° S
Cosmos 1606 Rocket 3.6 21:34:54 10° NNW 21:39:15 85° W 21:43:23 11° S
ARIANE 5 R/B 2.7 21:35:43 12° SSE 21:39:49 77° ENE 21:44:14 10° NNW
GP-B 4.0 21:36:12 10° NNE 21:40:16 34° E 21:43:35 14° SE
Cosmos 2341 Rocket 4.3 21:35:14 10° N 21:41:30 59° ENE 21:47:01 13° SSE
Cosmos 2360 Rocket 4.2 21:38:47 10° NNW 21:43:06 21° NE 21:47:23 10° E
Meteor 1-21 Rocket 4.3 21:38:49 10° S 21:44:25 90° S 21:50:12 10° NNE
Cosmos 192 4.4 21:44:01 10° S 21:48:49 59° ESE 21:53:39 10° NNE
Cosmos 1726 Rocket 3.8 21:57:39 10° NNW 22:01:58 66° W 22:05:41 14° S
Cosmos 1892 3.0 22:02:06 18° SSE 22:04:42 50° E 22:08:23 10° NNE
Nadezhda 1 Rocket 4.4 22:05:11 10° SSW 22:11:12 63° WNW 22:17:16 10° N
Cosmos 2181 Rocket 4.2 22:07:22 15° SSE 22:12:18 55° E 22:18:23 10° NNE
USA 234 3.5 22:06:52 10° ESE 22:13:25 73° NNE 22:19:57 10° WNW
Cosmos 1633 4.3 22:12:09 15° ESE 22:13:28 18° E 22:15:54 10° NE
Cosmos 1697 Rocket 4.0 22:11:37 10° NW 22:16:29 31° WSW 22:21:16 10° SSW
Cosmos 1980 Rocket 2.6 22:10:57 10° NW 22:16:33 57° WSW 22:20:52 17° S
SL-16 R/B 2.8 22:11:02 10° NNW 22:16:36 51° NE 22:21:23 14° SE
Cosmos 1486 Rocket 4.1 22:11:59 10° NNW 22:17:14 74° ENE 22:21:05 18° SSE
X-37B 2.8 22:17:50 10° SW 22:18:13 11° SW 22:18:13 11° SW
Cosmos 1992 Rocket 4.4 22:15:19 17° S 22:19:03 44° ESE 22:24:02 10° NE
Cosmos 2219 Rocket 4.4 22:16:01 10° NNW 22:20:07 20° NE 22:24:12 10° E
Cosmos 2369 4.3 22:14:37 10° NW 22:20:07 49° WSW 22:24:30 16° S
TIMED 4.4 22:21:54 13° SSW 22:25:44 75° ESE 22:30:06 10° NNE
COSMOS 2406 3.5 22:22:01 10° SW 22:27:47 73° WNW 22:33:33 10° NNE
Cosmos-2242 4.0 22:24:41 10° N 22:28:36 35° ENE 22:31:12 18° SE
ATLAS 5 CENTAUR R/B 1.7 22:29:23 21° S 22:31:24 39° ESE 22:35:19 10° NE
Cosmos 1869 3.2 22:28:58 10° N 22:32:52 80° E 22:35:09 24° SSE
Cosmos 1602 Rocket 4.2 22:32:11 22° SSE 22:34:28 38° E 22:38:29 10° NNE
In-Cosmos 22 Rocket 4.1 22:30:23 16° S 22:34:48 76° E 22:40:13 10° NNE
ERS-2 4.5 22:36:05 10° ENE 22:36:46 10° E 22:37:27 10° E
Meteor 1-27 4.2 22:33:03 10° NNW 22:38:39 83° W 22:42:35 20° S
Terra 3.5 22:35:41 10° SSW 22:39:39 26° W 22:43:39 10° NW
FALCON 9 DEB 3.3 22:37:57 10° WNW 22:41:07 47° SSW 22:42:17 31° SSE
ASTEX 1 3.6 22:36:45 10° N 22:41:46 70° W 22:45:50 15° SSW
ALOS 2 3.4 22:39:48 19° SE 22:42:37 43° ENE 22:46:47 10° N
Cosmos 1833 Rocket 4.1 22:38:38 10° WSW 22:43:52 39° NW 22:49:09 10° NNE
Cosmos 1354 Rocket 4.3 22:40:08 10° NNW 22:45:27 65° ENE 22:49:06 20° SE
BREEZE-M DEB (TANK) 3.4 22:44:35 10° W 22:47:32 72° S 22:57:52 10° ESE
SL-8 Rocket 4.3 22:42:06 10° NNW 22:48:14 61° W 22:53:01 17° S
Cosmos 2058 Rocket 4.1 22:45:18 10° NNW 22:49:24 38° W 22:52:35 15° SSW
ADEOS Rocket 3.8 22:45:43 18° SE 22:51:30 65° ENE 22:59:11 10° NNW
Cosmos 1825 2.1 22:49:40 23° SSW 22:51:51 84° W 22:55:38 10° N
Cosmos 2322 Rocket 2.5 22:46:28 10° NNW 22:52:09 65° ENE 22:56:24 18° SE
Cosmos 1408 3.8 22:50:12 12° SW 22:53:01 35° WNW 22:56:15 10° N
Cosmos 1503 Rocket 4.0 22:49:55 10° NNW 22:55:16 89° ENE 22:58:35 23° SSE
Cosmos 1626 Rocket 3.5 22:54:43 22° S 22:57:28 87° W 23:01:52 10° N
USA 276 2.3 22:59:38 10° W 23:02:32 42° SSW 23:02:50 40° S
Cosmos 2278 4.4 22:57:24 10° NW 23:02:48 43° WSW 23:06:17 20° S
Cosmos 1777 Rocket 4.3 22:57:59 10° NNW 23:03:16 61° ENE 23:06:53 20° SE
Cosmos 2333 Rocket 3.3 23:01:48 10° NNW 23:07:15 40° NE 23:12:40 10° ESE
SJ 16-02 1.4 23:05:26 10° NNW 23:09:53 80° ENE 23:12:19 26° SSE
Cosmos 1825 Rocket 4.3 23:08:17 25° SE 23:10:15 39° E 23:14:18 10° NNE
Gbstr 26 Del rocket 4.3 23:11:09 23° SE 23:11:17 23° SE 23:15:09 10° E
Cosmos 1340 Rocket 4.1 23:13:04 21° SE 23:14:29 27° E 23:17:52 10° NNE
Cosmos 2082 Rocket 3.2 23:12:12 10° SW 23:17:42 47° NW 23:23:12 10° NNE
Meteor 2-20 4.4 23:13:53 22° S 23:17:58 80° E 23:24:05 10° NNE
H-2A R/B 3.6 23:14:44 10° NNE 23:18:55 63° ESE 23:20:55 29° S
USA 267 3.2 23:14:10 10° ENE 23:20:42 70° SE 23:27:14 10° SW
Cosmos 2221 3.6 23:21:42 10° N 23:25:44 35° ENE 23:28:17 19° SE
Cosmos 1606 2.6 23:22:44 10° NNW 23:26:36 85° W 23:28:16 33° S
Cosmos 2058 3.2 23:26:08 30° SSE 23:27:59 54° E 23:32:05 10° NNE
Cosmos 2360 Rocket 2.3 23:22:20 10° NNW 23:28:04 77° ENE 23:32:00 21° SE
Cosmos 1934 Rocket 4.1 23:23:01 10° N 23:29:04 65° ENE 23:33:06 22° SSE
Spot 4 4.4 23:27:39 24° SSW 23:30:17 48° W 23:34:57 10° NNW
Meteor 2-2 Rocket 4.4 23:34:47 10° NNW 23:40:50 88° ENE 23:44:36 25° SSE
Cosmos 44 4.1 23:41:21 26° SSE 23:42:38 31° ESE 23:46:35 10° ENE
Cosmos 2237 4.4 23:38:02 10° NW 23:43:41 60° WSW 23:46:53 26° S
Meteor 2-20 Rocket 4.4 23:42:26 23° S 23:46:23 88° W 23:52:32 10° N
Cosmos 1633 3.7 23:45:55 21° SW 23:47:43 35° WNW 23:50:57 10° N
Cosmos 1758 Rocket 4.1 23:45:44 23° SW 23:48:18 53° WNW 23:52:38 10° N
Cosmos 2237 Rocket 4.4 23:47:37 10° NNW 23:52:09 24° NE 23:56:38 10° E
COSMOS 2428 3.7 23:48:33 10° NNW 23:54:03 45° NE 23:59:31 10° ESE
